IABS R/B, 22916

Orbit data source: Space-Track

IABS R/B, 22916 is space debris in GEO originally from a launch on Sun, 28 Nov 1993 UTC launched from the Air Force Eastern Test Range (AFETR). Debris objects in space refer to the collection of defunct objects orbiting the Earth. Examples of debris include non-operational satellites, rocket bodies, and fragments generated from explosions, collisions, or faulty payload assembly.

Not visible in the next 10 days
Identifier
22916, 1993-074B
Orbit
GEO
Country
Flag of USUS
Related business
Manufacturer
MM/Valley Forge
Mission
Spacecraft
Bus & Motor
R-4D, R-4D-12 X2
Mass
270 kg wet, 270 kg dry
Launch date (UTC)
1993-11-28 (32 years ago)
Launch vehicle
Unknown
Launch site
Air Force Eastern Test Range (AFETR)
Object type
Payload
Rocket body
Debris
Shape & HBR
Cyl, 1.4 m
Radar Cross Section
4.851 m²

Expand to show TLE details & history
Last TLE update: 2 days ago

TLE from 2 days ago
0 IABS R/B
1 22916U 93074B   25257.95734163 -.00000042  00000-0  00000-0 0  9999
2 22916  13.9832 344.0643 0064314 100.6787 260.0730  0.99998911 23153
Epoch: 2025-09-14T22:58Z
TLE epoch observation values (Epoch: 2025-09-14T22:58:34.316Z)
Latitude
0.00002°
Longitude
5.27148°
Altitude
35,911.451 km
Speed
3.068 km/s
True Right ascension
22h 56m 20s
True Declination
0° 00' 00"
Sunlit
Object was in daylight at epoch
Visualization orbit readout
Latitude
Unknown
Longitude
Unknown
Altitude
Unknown
Speed
Unknown
Apparent Right ascension
Unknown
Apparent Declination
Unknown
Sunlit
N/A
Visualization observer readout
Local Sidereal Time
15:19:35
Azimuth
Unknown
Elevation
Unknown
Doppler factor
Unknown
Orbital elements
Apogee altitude
36,135.92 km
Perigee altitude
35,592.565 km
Semi-major axis
42,242.38 km
Eccentricity
0.00643
Inclination
13.9832°
RAAN
344.0643°
Arg. of periapsis
100.6787°
True anomaly
259.34807°
Mean anomaly
260.073°
Eccentric anomaly
259.71043°
Mean motion
0.24999 °/min
Orbital period
1,440.06 mins
BSTAR
0
Loading maneuver chart data...
Computing Atmospheric mass density...
Loading historical data...
Loading historical data...
Loading historical data...
Loading historical data...
Loading historical data...
Loading historical data...
Loading historical data...
Other satellites on launch #74 in the year 1993 (1993-11-28 UTC)

Documentation

Showing up to 5 results
|